Regional Weather Roundup
Issued by NWS

Home | Current Version | Previous Version | Graphics & Text | Print | Product List | Glossary On
Versions: 1 2 3 4 5 6 7 8 9 10 11 12 13 14 15 16 17 18 19 20 21 22 23 24 25 26 27 28 29 30 31 32 33 34 35 36 37 38 39 40 41 42 43 44 45 46 47 48 49 50
000
ASUS45 KBOU 040807
RWRCO

WEATHER ROUNDUP FOR COLORADO
NATIONAL WEATHER SERVICE DENVER/BOULDER CO
100 AM MST WED MAR 04 2015

NOTE: "FAIR" INDICATES FEW OR NO CLOUDS BELOW 12000 FEET WITH NO
SIGNIFICANT WEATHER AND/OR OBSTRUCTIONS TO VISIBILITY.

COZ001>005-013-030-031-040900-
...NORTHWEST COLORADO...

CITY           SKY/WX    TMP DP  RH WIND       PRES   REMARKS
CRAIG            N/A     20   9  62 W9        29.95R WCI   9
HAYDEN         CLOUDY    18  10  73 W12       29.91R WCI   5
MEEKER         CLOUDY    20  11  68 E6        29.93R WCI  12
MOUNT WERNER   NOT AVBL
STEAMBOAT SPGS CLOUDY    17  12  80 W9        29.88R WCI   6
WALDEN         CLOUDY    10   5  79 N13       29.80R WCI  -5
$$

COZ006>008-011-040900-
...WEST CENTRAL VALLEYS...

CITY           SKY/WX    TMP DP  RH WIND       PRES   REMARKS
GRAND JUNCTION LGT SNOW  28  28 100 W5        29.92R FOG     WCI  23
MONTROSE       CLOUDY    28  26  92 E6        29.90R WCI  22
EAGLE          CLOUDY    23  19  86 E7        29.88R WCI  15
RIFLE          CLOUDY    29  19  66 NW7       29.91R WCI  22
DELTA          CLOUDY    32  30  92 SW5       29.89R WCI  27
NUCLA          CLOUDY    30  28  93 CALM      29.93R
$$

COZ017>023-064>068-040900-
...SOUTHWEST COLORADO...

CITY           SKY/WX    TMP DP  RH WIND       PRES   REMARKS
DURANGO        PTCLDY    18  14  84 N5        29.86S WCI  11
CORTEZ         PTCLDY    25  23  92 CALM      29.88R
PAGOSA SPRINGS MOCLDY    21  20  98 CALM      29.86R
TELLURIDE      LGT SNOW  20  19  97 W6        29.84S VSB 1   WCI  12
WOLF CREEK PAS CLOUDY     9   9 100 MISG      29.80R
$$

COZ009-010-012-014-032>034-037-058>063-040900-
...CENTRAL COLORADO...

CITY           SKY/WX    TMP DP  RH WIND       PRES   REMARKS
ASPEN          LGT SNOW  21  18  88 N7        29.80R FOG     WCI  12
BUENA VISTA    CLOUDY    24  14  65 SE6       29.76R WCI  17
COPPER MTN     NOT AVBL
BERTHOUD PASS  LGT SNOW  -2  -8  78 NW18      29.66S VSB 3/4 WCI -24
COTTONWOOD PAS LGT SNOW  21  14  73 SW5       29.73R WCI  15
GUNNISON       PTCLDY    23  18  80 SW13      29.82R WCI  11
KREMMLING      CLOUDY    19   5  53 W6        29.86R WCI  11
LEADVILLE      LGT SNOW  11   8  88 N8        29.73R FOG     WCI  -1
SALIDA         MOCLDY    24  18  78 E7        29.85R WCI  16
SUNLIGHT       CLOUDY   N/A N/A N/A CALM        N/A
WILKERSON PASS CLOUDY    10   9  92 SW7       29.71S WCI   0
$$

COZ069>075-040900-
...SAN LUIS VALLEY/SANGRE DE CRISTO MOUNTAINS...

CITY           SKY/WX    TMP DP  RH WIND       PRES   REMARKS
ALAMOSA        CLEAR     21  17  84 SW10      29.80F WCI  10
LA VETA PASS   CLOUDY    19  14  79 MISG      29.77R
SAGUACHE       CLEAR     21  18  86 NW10      29.80R WCI  10
$$

COZ035-036-038>040-040900-
...NORTHERN COLORADO FRONT RANGE...

CITY           SKY/WX    TMP DP  RH WIND       PRES   REMARKS
DENVER INTL AP LGT SNOW  13  10  88 NE15      29.95R FOG     WCI  -3
DMNS CITY PARK   N/A     14  11  91 NE5G14    29.97R WCI   6
AURORA         LGT SNOW  15  13  95 N12       29.94R FOG     WCI   1
FRONT RANGE AP FLURRIES  18  14  86 NE13      29.95R WCI   4
ERIE MUNI ARPT LGT SNOW  15  13  92 N7        29.99R WCI   5
BOULDER MUN AP LGT SNOW  14  12  92 N5        29.97S WCI   6
CENTENNIAL     LGT SNOW  16  13  88 N8        29.91R FOG     WCI   5
BROOMFIELD     FLURRIES  14  12  92 N10       29.95R WCI   1
FORT COLLINS   MOCLDY    12   9  85 N7        30.00R WCI   2
LONGMONT       LGT SNOW  16  11  82 NE7       30.02R WCI   6
$$

COZ041-046-047-076>085-087-088-040900-
...PIKES PEAK/PALMER DIVIDE AND SOUTHERN FOOTHILLS...

CITY           SKY/WX    TMP DP  RH WIND       PRES   REMARKS
COLO. SPRINGS  LGT SNOW  21  20  96 E5        29.87R FOG     WCI  15
A. F. ACADEMY  FLURRIES  18  14  86 N8        29.85R WCI   7
ELLICOTT       NOT AVBL
FALCON         LGT SNOW  17  16  93 NE6       29.85R WCI   9
FORT CARSON    SNOW      22  21  96 E5        29.87R VSB 1/2 WCI  15
LIMON          LGT SNOW  17  15  92 E9        29.92R FOG     WCI   6
MONUMENT HILL  LGT SNOW  14  12  92 N6        29.84R WCI   5
TRINIDAD       FOG       29  26  89 NE8       29.83S VSB 1/2 WCI  21
$$

COZ042>045-048>051-090-091-040900-
...NORTHEAST COLORADO...

CITY           SKY/WX    TMP DP  RH WIND       PRES   REMARKS
GREELEY ARPT   MOCLDY    14   5  67 NE8       30.01R WCI   3
AKRON          LGT SNOW  13  10  88 NE12      30.00R FOG     WCI  -1
BURLINGTON     LGT SNOW  16  13  88 E12       30.00R FOG     WCI   3
WRAY           LGT SNOW  18  15  91 NE5       30.07R WCI  11
STERLING       LGT SNOW  16  14  93 NE7       30.05R WCI   6
HOLYOKE        NOT AVBL
FORT MORGAN    FLURRIES  14  10  84 NE12      30.02R WCI   1
$$

COZ086-089-092>099-040900-
...SOUTHEAST COLORADO...

CITY           SKY/WX    TMP DP  RH WIND       PRES   REMARKS
PUEBLO         CLOUDY    25  23  92 E12       29.91R FOG     WCI  14
LA JUNTA       CLOUDY    25  22  88 E14       29.94R WCI  13
LAMAR          CLOUDY    26  20  77 NE13      29.97R WCI  15
SPRINGFIELD      N/A     23  21  92 E13       29.92S WCI  11
$$


USA.gov is the U.S. government's official web portal to all federal, state and local government web resources and services.